| time (UTC) | temp C | wind direction | speed KPH | gust KPH | rain 1hr cm | rain 24hr cm | rain mn cm | humidity % | barometer mb |
| 20260510132524 | 21 | 350 | 1.6 | 4.8 | 0.00 | 0.00 | 0.00 | 53 | |
| 20260510131532 | 21 | 3 | 1.6 | 6.4 | 0.00 | 0.00 | 0.00 | 50 | |
| 20260510130524 | 21 | 346 | 1.6 | 3.2 | 0.00 | 0.00 | 0.00 | 52 | |
| 20260510125534 | 21 | 333 | 1.6 | 4.8 | 0.00 | 0.00 | 0.00 | 52 | |
| 20260510124524 | 22 | 98 | 0.0 | 3.2 | 0.00 | 0.00 | 0.00 | 47 | |
| 20260510123531 | 23 | 303 | 1.6 | 3.2 | 0.00 | 0.00 | 0.00 | 45 | |
| 20260510122523 | 23 | 144 | 1.6 | 4.8 | 0.00 | 0.00 | 0.00 | 44 | |
| 20260510121524 | 23 | 146 | 1.6 | 4.8 | 0.00 | 0.00 | 0.00 | 44 | |
| 20260510120524 | 23 | 186 | 1.6 | 4.8 | 0.00 | 0.00 | 0.00 | 43 | |
| 20260510115520 | 23 | 313 | 1.6 | 3.2 | 0.00 | 0.00 | 0.00 | 47 | |
| 20260510114524 | 23 | 164 | 1.6 | 6.4 | 0.00 | 0.00 | 0.00 | 47 | |
| 20260510113532 | 22 | 357 | 1.6 | 6.4 | 0.00 | 0.00 | 0.00 | 49 | |
| 20260510112523 | 21 | 133 | 1.6 | 6.4 | 0.00 | 0.00 | 0.00 | 49 | |
| 20260510111531 | 22 | 169 | 3.2 | 8.0 | 0.00 | 0.00 | 0.00 | 49 | |
| 20260510110524 | 22 | 128 | 1.6 | 4.8 | 0.00 | 0.00 | 0.00 | 52 | |
| 20260510105532 | 22 | 288 | 0.0 | 3.2 | 0.00 | 0.00 | 0.00 | 53 | |
| 20260510104525 | 22 | 107 | 1.6 | 3.2 | 0.00 | 0.00 | 0.00 | 52 | |
| 20260510103520 | 21 | 163 | 1.6 | 4.8 | 0.00 | 0.00 | 0.00 | 55 | |
| 20260510102524 | 21 | 140 | 1.6 | 4.8 | 0.00 | 0.00 | 0.00 | 55 | |
| 20260510101536 | 21 | 119 | 1.6 | 3.2 | 0.00 | 0.00 | 0.00 | 54 | |
| 20260510100526 | 20 | 129 | 1.6 | 3.2 | 0.00 | 0.00 | 0.00 | 58 | |
| 20260510095532 | 20 | 157 | 1.6 | 6.4 | 0.00 | 0.00 | 0.00 | 57 | |
| 20260510094524 | 20 | 173 | 1.6 | 3.2 | 0.00 | 0.00 | 0.00 | 59 | |
| 20260510093526 | 20 | 0 | 0.0 | 3.2 | 0.00 | 0.00 | 0.00 | 59 | |
| 20260510092523 | 19 | 158 | 1.6 | 4.8 | 0.00 | 0.00 | 0.00 | 61 | |
| 20260510091531 | 18 | 178 | 1.6 | 3.2 | 0.00 | 0.00 | 0.00 | 62 | |
| 20260510090523 | 17 | 73 | 1.6 | 4.8 | 0.00 | 0.00 | 0.00 | 63 | |
| 20260510085532 | 17 | 153 | 1.6 | 6.4 | 0.00 | 0.00 | 0.00 | 63 | |
| 20260510084524 | 17 | 117 | 0.0 | 4.8 | 0.00 | 0.00 | 0.00 | 64 | |
| 20260510083531 | 16 | 112 | 0.0 | 3.2 | 0.00 | 0.00 | 0.00 | 66 | |
| 20260510082524 | 16 | 142 | 1.6 | 4.8 | 0.00 | 0.00 | 0.00 | 64 | |
| 20260510081547 | 16 | 144 | 0.0 | 3.2 | 0.00 | 0.00 | 0.00 | 65 | |
| 20260510080524 | 16 | 158 | 1.6 | 3.2 | 0.00 | 0.00 | 0.00 | 68 | |
| 20260510075522 | 15 | 70 | 0.0 | 3.2 | 0.00 | 0.00 | 0.00 | 73 | |
| 20260510074523 | 14 | 196 | 1.6 | 4.8 | 0.00 | 0.00 | 0.00 | 72 | |
| 20260510073532 | 13 | 66 | 0.0 | 3.2 | 0.00 | 0.00 | 0.00 | 77 | |
| 20260510072527 | 12 | 183 | 1.6 | 3.2 | 0.00 | 0.00 | 0.00 | 80 | |
| 20260510071532 | 12 | 344 | 0.0 | 3.2 | 0.00 | 0.00 | 0.00 | 82 | |
| 20260510070520 | 11 | 156 | 0.0 | 3.2 | 0.00 | 0.00 | 0.00 | 85 | |
| 20260510065532 | 11 | 355 | 1.6 | 3.2 | 0.00 | 0.00 | 0.00 | 86 | |
| 20260510064523 | 10 | 351 | 1.6 | 3.2 | 0.00 | 0.00 | 0.00 | 89 | |
| 20260510063521 | 10 | 0.0 | 1.6 | 0.00 | 0.00 | 0.00 | 93 | ||
| 20260510062527 | 9 | 0.0 | 0.0 | 0.00 | 0.00 | 0.00 | 95 | ||
| 20260510061538 | 9 | 337 | 0.0 | 1.6 | 0.00 | 0.00 | 0.00 | 97 | |
| 20260510060524 | 8 | 358 | 0.0 | 3.2 | 0.00 | 0.00 | 0.00 | 97 | |
| 20260510055536 | 8 | 0.0 | 1.6 | 0.00 | 0.00 | 0.00 | 98 | ||
| 20260510054526 | 7 | 0.0 | 0.0 | 0.00 | 0.00 | 0.00 | 98 | ||
| 20260510053531 | 7 | 348 | 0.0 | 1.6 | 0.00 | 0.00 | 0.00 | 98 | |
| 20260510052529 | 7 | 0.0 | 0.0 | 0.00 | 0.00 | 0.00 | 98 | ||
| 20260510051535 | 6 | 0.0 | 0.0 | 0.00 | 0.00 | 0.00 | 98 | ||
| 20260510050522 | 6 | 0.0 | 0.0 | 0.00 | 0.00 | 0.00 | 98 | ||
| 20260510045538 | 6 | 0.0 | 0.0 | 0.00 | 0.00 | 0.00 | 98 | ||
| 20260510044527 | 5 | 0.0 | 1.6 | 0.00 | 0.00 | 0.00 | 98 | ||
| 20260510043523 | 5 | 0.0 | 0.0 | 0.00 | 0.00 | 0.00 | 98 | ||
| 20260510042524 | 5 | 0.0 | 0.0 | 0.00 | 0.00 | 0.00 | 98 | ||
| 20260510041529 | 5 | 0.0 | 0.0 | 0.00 | 0.00 | 0.00 | 98 | ||
| 20260510040525 | 5 | 0.0 | 0.0 | 0.00 | 0.00 | 0.00 | 98 | ||
| 20260510035532 | 4 | 0.0 | 0.0 | 0.00 | 0.00 | 0.00 | 98 | ||
| 20260510034524 | 4 | 0.0 | 0.0 | 0.00 | 0.00 | 0.00 | 98 | ||
| 20260510033536 | 4 | 0.0 | 0.0 | 0.00 | 0.00 | 0.00 | 97 | ||
| 20260510032524 | 4 | 0.0 | 0.0 | 0.00 | 0.00 | 0.00 | 97 | ||
| 20260510031531 | 4 | 5 | 0.0 | 1.6 | 0.00 | 0.00 | 0.00 | 97 | |
| 20260510030525 | 4 | 0.0 | 0.0 | 0.00 | 0.00 | 0.00 | 97 | ||
| 20260510025520 | 4 | 0.0 | 0.0 | 0.00 | 0.00 | 0.00 | 97 | ||
| 20260510024524 | 5 | 0.0 | 0.0 | 0.00 | 0.00 | 0.00 | 97 | ||
| 20260510023529 | 5 | 0.0 | 0.0 | 0.00 | 0.00 | 0.00 | 97 | ||
| 20260510022529 | 5 | 0.0 | 0.0 | 0.00 | 0.00 | 0.00 | 97 | ||
| 20260510021532 | 5 | 0.0 | 0.0 | 0.00 | 0.00 | 0.00 | 97 | ||
| 20260510020527 | 5 | 0.0 | 0.0 | 0.00 | 0.00 | 0.00 | 97 | ||
| 20260510015532 | 5 | 0.0 | 0.0 | 0.00 | 0.00 | 0.00 | 96 | ||
| 20260510014527 | 5 | 0.0 | 0.0 | 0.00 | 0.00 | 0.00 | 96 | ||
| 20260510013532 | 5 | 0.0 | 0.0 | 0.00 | 0.00 | 0.00 | 96 | ||
| 20260510012524 | 5 | 0.0 | 0.0 | 0.00 | 0.00 | 0.00 | 96 | ||
| 20260510011526 | 5 | 0.0 | 0.0 | 0.00 | 0.00 | 0.00 | 96 | ||
| 20260510010524 | 6 | 0.0 | 0.0 | 0.00 | 0.00 | 0.00 | 96 | ||
| 20260510005525 | 6 | 0.0 | 0.0 | 0.00 | 0.00 | 0.00 | 96 | ||
| 20260510004527 | 6 | 0.0 | 0.0 | 0.00 | 0.00 | 0.00 | 95 | ||
| 20260510003533 | 6 | 0.0 | 0.0 | 0.00 | 0.00 | 0.00 | 95 | ||
| 20260510002527 | 6 | 0.0 | 0.0 | 0.00 | 0.00 | 0.00 | 95 | ||
| 20260510001532 | 6 | 0.0 | 0.0 | 0.00 | 0.00 | 0.00 | 95 | ||
| 20260510000520 | 6 | 0.0 | 0.0 | 0.00 | 0.00 | 0.00 | 95 | ||
| 20260509235531 | 6 | 0.0 | 0.0 | 0.00 | 0.00 | 0.00 | 95 | ||
| 20260509234520 | 7 | 0.0 | 0.0 | 0.00 | 0.00 | 0.00 | 95 | ||
| 20260509233531 | 7 | 0.0 | 0.0 | 0.00 | 0.00 | 0.00 | 94 | ||
| 20260509232524 | 7 | 0.0 | 0.0 | 0.00 | 0.00 | 0.00 | 94 | ||
| 20260509231531 | 7 | 0.0 | 0.0 | 0.00 | 0.00 | 0.00 | 94 | ||
| 20260509230523 | 7 | 0.0 | 0.0 | 0.00 | 0.00 | 0.00 | 93 | ||
| 20260509225528 | 7 | 0.0 | 0.0 | 0.00 | 0.00 | 0.00 | 92 | ||
| 20260509224523 | 8 | 0.0 | 0.0 | 0.00 | 0.00 | 0.00 | 90 | ||
| 20260509223529 | 8 | 0.0 | 0.0 | 0.00 | 0.00 | 0.00 | 89 | ||
| 20260509222524 | 9 | 0.0 | 1.6 | 0.00 | 0.00 | 0.00 | 88 | ||
| 20260509221532 | 9 | 172 | 0.0 | 1.6 | 0.00 | 0.00 | 0.00 | 88 | |
| 20260509220527 | 9 | 209 | 0.0 | 1.6 | 0.00 | 0.00 | 0.00 | 87 | |
| 20260509215532 | 10 | 188 | 0.0 | 3.2 | 0.00 | 0.00 | 0.00 | 87 | |
| 20260509214538 | 10 | 0.0 | 1.6 | 0.00 | 0.00 | 0.00 | 87 | ||
| 20260509213531 | 10 | 200 | 0.0 | 4.8 | 0.00 | 0.00 | 0.00 | 89 | |
| 20260509212525 | 9 | 202 | 0.0 | 3.2 | 0.00 | 0.00 | 0.00 | 89 | |
| 20260509211531 | 9 | 0.0 | 1.6 | 0.00 | 0.00 | 0.00 | 88 | ||
| 20260509210523 | 10 | 0.0 | 0.0 | 0.00 | 0.00 | 0.00 | 88 | ||
| 20260509205524 | 10 | 0.0 | 0.0 | 0.00 | 0.00 | 0.00 | 87 | ||
| 20260509204526 | 10 | 344 | 0.0 | 3.2 | 0.00 | 0.00 | 0.00 | 87 | |
| 20260509203535 | 11 | 186 | 0.0 | 3.2 | 0.00 | 0.00 | 0.00 | 86 | |
| 20260509202523 | 11 | 232 | 0.0 | 1.6 | 0.00 | 0.00 | 0.00 | 85 | |
| 20260509201535 | 11 | 197 | 0.0 | 3.2 | 0.00 | 0.00 | 0.00 | 84 | |
| 20260509200523 | 11 | 225 | 0.0 | 1.6 | 0.00 | 0.00 | 0.00 | 84 | |
| 20260509195527 | 11 | 204 | 0.0 | 1.6 | 0.00 | 0.00 | 0.00 | 83 | |
| 20260509194523 | 11 | 0.0 | 0.0 | 0.00 | 0.00 | 0.00 | 82 | ||
| 20260509193529 | 11 | 179 | 0.0 | 1.6 | 0.00 | 0.00 | 0.00 | 81 | |
| 20260509192524 | 12 | 208 | 0.0 | 1.6 | 0.00 | 0.00 | 0.00 | 80 | |
| 20260509191523 | 12 | 0.0 | 0.0 | 0.00 | 0.00 | 0.00 | 78 | ||
| 20260509190523 | 12 | 0.0 | 0.0 | 0.00 | 0.00 | 0.00 | 76 | ||
| 20260509185535 | 13 | 174 | 0.0 | 1.6 | 0.00 | 0.00 | 0.00 | 75 | |
| 20260509184529 | 13 | 171 | 0.0 | 3.2 | 0.00 | 0.00 | 0.00 | 73 | |
| 20260509183547 | 13 | 150 | 1.6 | 4.8 | 0.00 | 0.00 | 0.00 | 73 | |
| 20260509182526 | 14 | 161 | 0.0 | 3.2 | 0.00 | 0.00 | 0.00 | 72 | |
| 20260509181547 | 14 | 177 | 0.0 | 3.2 | 0.00 | 0.00 | 0.00 | 70 | |
| 20260509180523 | 15 | 137 | 1.6 | 4.8 | 0.00 | 0.00 | 0.00 | 68 | |
| 20260509175525 | 15 | 186 | 3.2 | 6.4 | 0.00 | 0.00 | 0.00 | 67 | |
| 20260509174526 | 15 | 164 | 3.2 | 9.7 | 0.00 | 0.00 | 0.00 | 65 | |
| 20260509173528 | 16 | 174 | 3.2 | 8.0 | 0.00 | 0.00 | 0.00 | 63 | |
| 20260509172524 | 16 | 171 | 3.2 | 9.7 | 0.00 | 0.00 | 0.00 | 62 | |
| 20260509171534 | 16 | 166 | 3.2 | 6.4 | 0.00 | 0.00 | 0.00 | 62 | |
| 20260509170523 | 16 | 188 | 3.2 | 9.7 | 0.00 | 0.00 | 0.00 | 60 | |
| 20260509165524 | 16 | 175 | 3.2 | 8.0 | 0.00 | 0.00 | 0.00 | 60 | |
| 20260509164527 | 17 | 160 | 1.6 | 6.4 | 0.00 | 0.00 | 0.00 | 59 | |
| 20260509163532 | 17 | 158 | 1.6 | 6.4 | 0.00 | 0.00 | 0.00 | 58 | |
| 20260509162524 | 17 | 160 | 0.0 | 3.2 | 0.00 | 0.00 | 0.00 | 58 | |
| 20260509161536 | 17 | 175 | 1.6 | 3.2 | 0.00 | 0.00 | 0.00 | 58 | |
| 20260509160526 | 17 | 191 | 1.6 | 6.4 | 0.00 | 0.00 | 0.00 | 59 | |
| 20260509155533 | 17 | 172 | 3.2 | 6.4 | 0.00 | 0.00 | 0.00 | 59 | |
| 20260509154526 | 17 | 163 | 3.2 | 6.4 | 0.00 | 0.00 | 0.00 | 59 | |
| 20260509153532 | 17 | 304 | 1.6 | 4.8 | 0.00 | 0.00 | 0.00 | 61 | |
| 20260509152522 | 17 | 182 | 1.6 | 4.8 | 0.00 | 0.00 | 0.00 | 58 | |
| 20260509151533 | 18 | 144 | 0.0 | 3.2 | 0.00 | 0.00 | 0.00 | 58 | |
| 20260509150528 | 17 | 333 | 3.2 | 6.4 | 0.00 | 0.00 | 0.00 | 58 | |
| 20260509145526 | 18 | 287 | 1.6 | 4.8 | 0.00 | 0.00 | 0.00 | 56 | |
| 20260509144523 | 18 | 169 | 3.2 | 6.4 | 0.00 | 0.00 | 0.00 | 50 | |
| 20260509143525 | 18 | 154 | 3.2 | 6.4 | 0.00 | 0.00 | 0.00 | 50 | |
| 20260509142538 | 19 | 156 | 1.6 | 3.2 | 0.00 | 0.00 | 0.00 | 50 | |
| 20260509141531 | 18 | 157 | 3.2 | 8.0 | 0.00 | 0.00 | 0.00 | 50 | |
| 20260509140527 | 18 | 188 | 4.8 | 8.0 | 0.00 | 0.00 | 0.00 | 51 | |
| 20260509135531 | 19 | 159 | 1.6 | 6.4 | 0.00 | 0.00 | 0.00 | 50 | |
| 20260509134524 | 19 | 150 | 3.2 | 6.4 | 0.00 | 0.00 | 0.00 | 50 | |
| 20260509133532 | 18 | 213 | 1.6 | 4.8 | 0.00 | 0.00 | 0.00 | 49 |